Location: Dominion City
(49.1330°N, 97.1500°W)
Time: 12:23:45
(UTC-05:00)

Daily predictions for brighter satellites

Satellite Brightness Start Highest point End
(mag) Time Altitude Azimuth Time Altitude Azimuth Time Altitude Azimuth
Meteor 2-2 Rocket 4.4 20:51:30 10° S 20:57:15 60° E 21:03:08 10° NNE
Cosmos 2237 Rocket 3.1 20:53:35 10° SSE 20:58:05 25° ESE 21:02:36 10° NE
Cosmos 2322 Rocket 4.4 20:54:24 10° WSW 20:59:28 32° NW 21:04:32 10° NNE
Genesis I 3.3 20:55:52 10° NW 20:59:59 89° NE 21:04:03 10° SE
SJ-11-01 4.5 20:56:15 10° SSE 21:00:49 56° ENE 21:05:25 10° N
Cosmos 1633 Rocket 3.0 20:57:19 10° N 21:01:41 79° E 21:06:02 10° SSE
Cosmos 2278 Rocket 2.4 20:57:36 10° NNW 21:03:14 61° ENE 21:08:51 10° SE
Nadezhda 3 Rocket 4.1 20:57:38 10° N 21:03:58 88° E 21:10:20 10° S
ATLAS 5 CENTAUR R/B 4.1 21:00:44 10° NW 21:04:44 20° NNE 21:09:05 10° ENE
Meteor 2-14 Rocket 4.5 20:59:45 10° S 21:05:44 63° E 21:11:48 10° NNE
USA 234 4.2 21:01:48 10° ENE 21:07:57 45° N 21:14:05 10° WNW
CZ-3B R/B 1.2 21:08:40 10° WNW 21:10:24 85° SW 21:11:54 11° ESE
Cosmos 2098 Rocket 4.4 21:08:58 10° SE 21:12:01 18° E 21:14:41 10° NE
Cosmos 2221 4.4 21:09:05 10° SW 21:13:01 36° WNW 21:16:59 10° N
NOAA 11 4.4 21:07:51 10° SSE 21:13:15 60° ENE 21:18:41 10° N
Meteor 2-16 Rocket 4.5 21:09:48 10° S 21:15:50 62° E 21:21:52 10° NNE
Cosmos 1340 3.1 21:12:16 10° SSW 21:16:02 69° WNW 21:19:51 10° N
Cosmos 1515 Rocket 4.1 21:12:56 10° SSE 21:17:06 40° E 21:21:18 10° NNE
Thor Agena Rocket 3.6 21:14:57 10° NNE 21:20:13 84° ESE 21:25:30 10° SSW
Cosmos 2228 Rocket 3.4 21:17:59 10° SSE 21:22:10 45° E 21:26:23 10° NNE
Lacrosse 5 3.3 21:19:32 10° WNW 21:24:10 34° N 21:28:48 10° ENE
Cosmos 1825 2.4 21:22:14 10° N 21:25:57 49° ENE 21:29:38 10° SSE
NOSS 2-1 (C) 3.4 21:22:54 10° SW 21:26:34 81° NW 21:30:52 10° NE
NOSS 2-1 (D) 3.4 21:23:53 10° SW 21:27:33 79° NW 21:31:52 10° NE
SPOT 5 4.3 21:28:34 11° ESE 21:31:32 19° ENE 21:34:41 10° NNE
ATLAS 2AS CENTAUR R/B 3.4 21:23:53 10° NW 21:31:45 64° WSW 21:39:00 10° SSE
USA 245 4.5 21:33:59 11° E 21:34:27 12° ENE 21:35:24 10° NE
Cosmos 1328 Rocket 3.6 21:31:22 10° S 21:35:48 87° E 21:40:16 10° N
Spot 2 Rocket 3.6 21:31:15 10° SSE 21:36:21 79° WSW 21:41:28 10° NNW
ATLAS CENTAUR R/B 1.1 21:33:35 10° SSW 21:37:13 58° SE 21:41:03 10° NE
SL-8 R/B 4.4 21:34:48 10° SSW 21:39:01 31° SSE 21:43:16 10° E
Cosmos 1470 Rocket 3.8 21:40:28 10° NNW 21:44:52 72° W 21:49:16 10° S
Resurs 01 Rocket 2.6 21:42:22 10° S 21:46:39 46° W 21:50:57 10° NNW
SL-16 R/B 3.1 21:43:38 10° SSE 21:48:15 26° ESE 21:52:53 10° NE
Cosmos 1943 Rocket 4.2 21:46:49 10° N 21:50:07 16° NE 21:53:24 10° ENE
Cosmos 1727 Rocket 4.1 21:46:48 10° N 21:52:56 61° ENE 21:58:13 14° SSE
ARGOS 3.2 21:48:17 13° SSE 21:52:56 65° ENE 21:58:16 10° N
MetOp-B 4.2 21:51:06 15° SSE 21:55:29 62° ENE 22:00:47 10° N
Cosmos 1959 Rocket 4.4 21:49:47 10° S 21:55:53 69° E 22:01:58 10° NNE
NOSS 2-1 (E) 4.3 21:54:25 10° WSW 21:58:05 51° NW 22:02:29 10° NE
SL-08 RB Rocket 3.9 21:56:34 19° SE 21:59:37 55° ENE 22:04:01 10° N
Cosmos 1869 3.3 21:55:41 10° S 21:59:40 65° E 22:03:40 10° NNE
NOSS 3-4 (A) 3.8 21:55:23 10° NW 22:02:21 84° NE 22:07:53 20° SE
NOSS 3-4 (C) 3.8 21:55:29 10° NW 22:02:27 83° NE 22:07:59 20° SE
Meteor 2-10 Rocket 3.8 22:02:46 10° S 22:08:25 62° E 22:14:10 10° NNE
Cosmos 1408 3.7 22:05:25 10° NNW 22:08:54 44° W 22:12:25 10° SSW
USA 81 4.1 22:04:03 10° N 22:09:20 65° E 22:13:02 20° SSE
NOSS 0 Rocket 4.0 22:03:41 10° SSW 22:09:52 87° WNW 22:16:09 10° NNE
BREEZE-M DEB (TANK) 1.6 22:07:34 10° W 22:09:56 83° N 22:10:45 34° ENE
Cosmos 614 Rocket 4.4 22:05:01 10° NNW 22:10:07 49° ENE 22:12:58 24° SE
Cosmos 407 Rocket 3.4 22:05:59 10° NNW 22:11:09 86° ENE 22:14:31 22° SSE
SPOT 1/Viking Rocket 4.1 22:09:38 23° SE 22:12:30 43° ENE 22:17:27 10° N
NOSS 3-3 (A) 4.3 22:06:22 10° SW 22:12:32 73° NW 22:19:24 10° NE
NOSS 3-3 (C) 4.3 22:06:28 10° SW 22:12:37 73° NW 22:19:30 10° NE
Cosmos 2218 Rocket 4.1 22:07:02 10° S 22:13:25 90° W 22:19:53 10° N
ERS-1 Rocket 3.0 22:10:08 21° SSE 22:13:27 70° ENE 22:18:29 10° N
USA 267 4.1 22:08:36 10° ENE 22:13:51 25° SE 22:19:05 10° S
Cosmos 1980 3.7 22:08:36 10° SSW 22:14:18 86° WNW 22:20:03 10° NNE
Cosmos 2297 3.7 22:10:03 10° NNW 22:15:45 85° ENE 22:19:21 24° SSE
SL-08 R/B 4.5 22:10:29 10° S 22:16:49 79° E 22:23:17 10° NNE
Cosmos 1455 4.4 22:16:12 10° SW 22:19:30 27° WNW 22:22:52 10° NNW
H-2A R/B 1.9 22:17:10 21° SSE 22:20:35 85° ENE 22:25:35 10° NNW
Cosmos 1151 Rocket 4.0 22:16:45 10° SSW 22:20:52 48° WNW 22:25:03 10° N
Cosmos 1441 Rocket 3.4 22:20:35 35° SE 22:21:41 47° E 22:25:19 10° NNE
Cosmos 2369 Rocket 3.5 22:17:14 10° NNW 22:22:09 28° NE 22:25:18 18° E
Cosmos 1371 Rocket 4.0 22:19:23 10° SSW 22:24:42 84° ESE 22:30:07 10° NNE
Cosmos 2366 rocket 4.1 22:18:35 10° S 22:24:49 83° W 22:31:10 10° N
Helios 1B rocket 3.4 22:21:23 10° NE 22:25:00 28° E 22:25:08 28° E
Cosmos 2333 Rocket 3.1 22:19:58 10° SW 22:25:28 50° NW 22:30:59 10° NNE
Cosmos 676 Rocket 3.9 22:26:03 10° NNW 22:31:21 81° ENE 22:33:55 31° SSE
Cosmos 1707 Rocket 3.7 22:30:05 35° SE 22:31:28 50° E 22:35:40 10° NNE
Landsat 7 4.2 22:29:58 31° ESE 22:31:47 48° ENE 22:36:22 10° N
Cosmos 1869 Rocket 3.6 22:31:32 10° NNW 22:35:56 78° W 22:38:04 29° S
CZ-2C R/B 4.4 22:36:47 10° NE 22:39:33 15° E 22:39:33 15° E
Cosmos 2219 Rocket 3.8 22:34:41 10° WSW 22:39:53 36° NW 22:45:06 10° NNE
Cosmos 2237 Rocket 2.7 22:36:10 10° SW 22:41:44 60° WNW 22:47:20 10° NNE
Cosmos 1023 Rocket 4.4 22:37:49 10° NNW 22:43:01 86° ENE 22:45:09 36° SSE
CZ-4C R/B 3.4 22:44:41 23° E 22:44:41 23° E 22:48:11 10° ENE
Cosmos 1862 3.6 22:39:45 10° NNW 22:43:46 64° W 22:45:27 32° SSW
RESURS DK-1 4.0 22:41:38 10° N 22:45:03 24° NE 22:46:14 21° ENE
Cosmos 2056 Rocket 3.6 22:40:47 10° SSW 22:46:13 83° WNW 22:51:39 10° NNE
Helios 1A 3.0 22:45:20 38° S 22:46:53 77° WSW 22:51:06 10° NNW
Cosmos 2278 Rocket 4.0 22:42:21 10° NW 22:46:54 25° WSW 22:51:27 10° SSW
Cosmos 1452 Rocket 3.8 22:45:53 38° SE 22:47:08 44° ESE 22:52:08 10° NE
Cosmos 1733 Rocket 3.5 22:43:01 10° N 22:47:15 44° ENE 22:47:58 40° ESE
Cosmos 1437 Rocket 3.1 22:45:07 10° N 22:48:52 47° ENE 22:49:10 46° E
CARTOSAT-1 3.9 22:48:33 42° ESE 22:49:25 50° ENE 22:53:36 10° N
Terra 2.2 22:48:17 38° ESE 22:49:34 48° ENE 22:54:09 10° N
Cosmos 405 4.4 22:46:43 10° NNW 22:49:55 33° W 22:51:27 22° SW
USA 234 3.6 22:45:37 19° E 22:50:24 61° NNE 22:56:50 10° WNW
ATLAS 5 CENTAUR R/B 3.1 22:45:23 10° NW 22:50:47 44° NE 22:54:08 24° E
Cosmos 405 Rocket 2.7 22:50:12 40° SSW 22:51:31 84° WNW 22:55:30 10° N
Cosmos 2098 Rocket 4.1 22:49:00 10° SSW 22:53:13 39° WNW 22:56:39 10° N
Cosmos 1850 Rocket 4.1 22:56:49 10° NNW 23:01:58 61° ENE 23:03:21 45° ESE
Meteor 1-20 Rocket 4.5 22:57:53 10° N 23:03:13 50° ENE 23:04:36 41° ESE
Cosmos 1140 Rocket 3.7 23:00:13 10° NNW 23:05:22 64° WSW 23:07:08 39° S
Lacrosse 5 2.2 23:02:52 10° NW 23:07:54 60° NNE 23:09:43 37° E
SPOT 5 3.0 23:07:48 39° SSW 23:09:16 59° WSW 23:13:40 10° NNW
Cosmos 1741 Rocket 4.1 23:04:26 10° NNW 23:09:47 69° ENE 23:11:08 49° SE
Cosmos 2242 Rocket 3.7 23:12:08 53° E 23:12:08 53° E 23:16:22 10° NNE
IGS 5A 3.3 23:11:58 71° SE 23:12:23 84° ENE 23:16:36 10° NNW
Cosmos 1633 3.1 23:11:18 10° N 23:14:17 49° NE 23:14:17 49° NE
Cosmos 1954 Rocket 4.5 23:10:16 10° NNW 23:15:21 52° WSW 23:17:03 37° SSW
ATLAS CENTAUR R/B 3.7 23:13:27 10° W 23:16:31 23° NNW 23:19:45 10° NNE
Cosmos 1934 Rocket 3.9 23:17:32 44° SSE 23:19:27 70° E 23:25:29 10° NNE
GEOS 3 Rocket 3.5 23:14:18 10° NE 23:19:43 82° SE 23:24:42 12° SW
Meteor 1-4 Rocket 3.2 23:17:11 10° N 23:19:57 47° NNE 23:19:57 47° NNE
SL-8 R/B 3.5 23:16:23 10° WSW 23:21:10 72° SSE 23:21:33 68° SE
Nimbus 7 Rocket 4.4 23:21:49 10° NNE 23:27:41 63° ESE 23:28:53 52° SSE
CZ-2C R/B 2.7 23:30:14 66° ESE 23:30:42 71° ENE 23:35:32 10° N
Cosmos 1933 4.2 23:30:17 39° WSW 23:31:13 47° WNW 23:35:11 10° N
SL-16 R/B 2.7 23:26:25 10° SW 23:32:00 59° WNW 23:37:37 10° NNE
Meteor 1-29 3.7 23:30:31 10° N 23:33:16 50° NNW 23:33:16 50° NNW
Cosmos 1943 Rocket 2.3 23:29:35 10° NNW 23:35:04 59° ENE 23:36:08 50° E
BREEZE M DEB (TANK) 3.5 23:22:03 10° W 23:35:05 87° N 23:36:54 39° E
Cosmos 1908 Rocket 3.7 23:36:12 10° N 23:40:24 65° ENE 23:40:24 65° ENE
Cosmos 389 Rocket 4.1 23:41:08 10° N 23:43:12 30° NNE 23:43:12 30° NNE
Meteor 1-11 Rocket 4.4 23:39:57 10° N 23:45:16 39° ENE 23:45:57 38° E
H-2A R/B 3.8 23:45:23 23° ENE 23:45:33 23° ENE 23:49:07 10° N
Cosmos 1821 Rocket 4.4 23:42:14 27° SSW 23:45:43 60° WNW 23:51:57 10° N
Cosmos 1862 Rocket 3.6 23:47:43 77° WNW 23:47:43 77° WNW 23:52:06 10° N
Cosmos 1420 Rocket 4.2 23:48:12 43° SW 23:49:56 71° WNW 23:55:18 10° NNE
Cosmos 1782 3.8 23:53:07 41° NNE 23:53:07 41° NNE 23:55:53 10° NNE
